{"data":{"norad_id":59039,"intl_designator":"2024-038S","name":"STARLINK-31220","alt_names":[],"object_type":"PAYLOAD","status":"ACTIVE","operator":null,"country":"US","launch_date":"2024-02-25","launch_site_code":"AFETR","launch_vehicle":null,"mission":null,"orbit_class":"UNKNOWN","rcs_meters":null,"size_class":null,"mass_kg":null,"dimensions":null,"purposes":["comms"],"wikipedia_slug":null,"has_3d_model":false,"image_url":null,"decayed_at":null,"tle_current":{"epoch":"2026-05-25T03:49:51.339072Z","epoch_age_seconds":65277,"freshness":"FRESH","line1":"1 59039U 24038S   26145.15962198  .00009871  00000+0  36745-3 0  9994","line2":"2 59039  43.0003 315.1214 0001298 276.2575  83.8129 15.27605744126459","mean_motion":15.27605744,"eccentricity":0.0001298,"inclination_deg":43.0003,"raan_deg":315.1214,"arg_perigee_deg":276.2575,"mean_anomaly_deg":83.8129,"bstar":0.00036745,"rev_number":12645,"period_min":94.265160081776,"perigee_km":482.08143837535,"apogee_km":483.86258227443,"semimajor_km":6861.1090103249,"source":"CELESTRAK","updated_at":"2026-05-25T13:38:18.825703Z"}}}